ATLAS 2AS CENTAUR R/B - Orbit

View from above orbital plane
View from above orbital plane
View from above satellite
View from above satellite

Ground track
Ground track

The orbit data is extracted from the following two-line orbital elements,

1 28096U 03054B   13092.79228823 0.00000030  00000-0  46947-4 0    03
2 28096  63.6640 340.3613 0224500 312.3993  47.6007 13.40695023    02
Epoch (UTC): 02 April 2013 19:00:53
Eccentricity: 0.0224500
inclination: 63.6640°
perigee height: 938 km
apogee height: 1275 km
right ascension of ascending node: 340.3613°
argument of perigee: 312.3993°
revolutions per day: 13.40695023
mean anomaly at epoch: 47.6007°
orbit number at epoch: 0

The dashed part of the orbit path shows where the satellite is in the earth's shadow,  

Developed and maintained by Chris Peat, Heavens-Above GmbH. Please read the updated FAQ before sending e-mail. Imprint. DLR